Hat Yai, Thailand

11:13 PM +07 on August 22, 2017 (GMT +0700)
Hat Yai International

Weather History for VTSS - October, 2011

Change the Weather History Date:

Wednesday, October 26, 2011

  Actual Average Record
Temperature  
Mean Temperature 80 °F -  
Max Temperature 88 °F 84 °F 93 °F (2010)
Min Temperature 73 °F 73 °F 72 °F (2016)
Cooling Degree Days 16    
Growing Degree Days 30 (Base 50)    
Moisture  
Dew Point 73 °F    
Average Humidity 81    
Maximum Humidity 89    
Minimum Humidity 65    
Precipitation  
Precipitation 0.35 in - - ()
Sea Level Pressure  
Sea Level Pressure 29.79 in    
Wind  
Wind Speed 3 mph ()    
Max Wind Speed 12 mph    
Max Gust Speed -    
Visibility 5.1 miles    
Events Rain    
Averages and records for this station are not official NWS values.
T = Trace of Precipitation, MM = Missing Value Source: Averaged Metar Reports

Daily Weather History Graph

Daily Weather History Graph

Search for Another Location

Airport or City:

Trip Planner

Search our weather history database for the weather conditions in past years. The results will help you decide how hot, cold, wet, or windy it might be!

Date:

Astronomy

Oct. 26, 2011 Rise Set
Actual Time 6:04 AM +07 5:59 PM +07
Civil Twilight 5:43 AM +07 6:20 PM +07
Nautical Twilight 5:18 AM +07 6:45 PM +07
Astronomical Twilight 4:54 AM +07 7:10 PM +07
Moon 5:12 AM +07 (10/26) 5:26 PM +07 (10/26)
Length of Visible Light 12h 37m
Length of Day
11h 54m
Waning Crescent, 1% of the Moon is Illuminated
Oct 26
Waning Crescent
Oct 27
New
Nov 2
First Quarter
Nov 11
Full
Nov 18
Last Quarter

Hourly Weather History & Observations

Time (+07) Temp. Heat Index Dew Point Humidity Pressure Visibility Wind Dir Wind Speed Gust Speed Precip Events Conditions
12:00 AM 77.0 °F - 71.6 °F 83% 29.80 in 6.2 mi Calm Calm - N/A   Mostly Cloudy
12:30 AM 75.2 °F - 71.6 °F 89% 29.80 in 3.7 mi Calm Calm - N/A   Mostly Cloudy
1:00 AM 75 °F - 71 °F 82% 29.81 in 4 mi North 4.6 mph - -   Overcast
1:00 AM 75.2 °F - 69.8 °F 83% 29.80 in 3.7 mi North 4.6 mph - N/A   Mostly Cloudy
1:30 AM 75.2 °F - 69.8 °F 83% 29.80 in 3.7 mi Calm Calm - N/A   Mostly Cloudy
2:00 AM 75.2 °F - 69.8 °F 83% 29.77 in 3.7 mi Calm Calm - N/A   Mostly Cloudy
2:30 AM 73.4 °F - 69.8 °F 88% 29.77 in 3.7 mi Calm Calm - N/A   Mostly Cloudy
3:00 AM 73.4 °F - 69.8 °F 88% 29.77 in 3.7 mi Calm Calm - N/A   Mostly Cloudy
3:30 AM 73.4 °F - 69.8 °F 88% 29.77 in 3.7 mi Calm Calm - N/A   Mostly Cloudy
4:00 AM 75.2 °F - 69.8 °F 83% 29.77 in 3.7 mi Calm Calm - N/A   Mostly Cloudy
4:30 AM 75.2 °F - 71.6 °F 89% 29.77 in 3.7 mi Calm Calm - N/A   Mostly Cloudy
5:00 AM 75.2 °F - 71.6 °F 89% 29.77 in 3.7 mi Calm Calm - N/A Rain Light Rain
5:30 AM 75.2 °F - 71.6 °F 89% 29.77 in 3.7 mi Calm Calm - N/A   Mostly Cloudy
6:00 AM 75.2 °F - 71.6 °F 89% 29.77 in 3.7 mi Calm Calm - N/A   Mostly Cloudy
6:30 AM 75.2 °F - 71.6 °F 89% 29.77 in 3.7 mi Calm Calm - N/A   Mostly Cloudy
7:00 AM 75 °F - 71 °F 85% 29.79 in 4 mi Calm Calm - -   Mist
7:00 AM 75.2 °F - 71.6 °F 89% 29.77 in 4.3 mi Calm Calm - N/A   Mostly Cloudy
7:30 AM 75.2 °F - 71.6 °F 89% 29.80 in 4.3 mi Calm Calm - N/A   Mostly Cloudy
8:00 AM 75.2 °F - 71.6 °F 89% 29.83 in 4.3 mi Calm Calm - N/A   Mostly Cloudy
8:30 AM 77.0 °F - 73.4 °F 89% 29.83 in 4.3 mi Calm Calm - N/A   Mostly Cloudy
9:00 AM 78.8 °F - 75.2 °F 89% 29.83 in 5.6 mi Calm Calm - N/A   Mostly Cloudy
9:30 AM 82.4 °F 90.9 °F 77.0 °F 84% 29.83 in 6.2 mi North 5.8 mph - N/A   Mostly Cloudy
10:00 AM 82.4 °F 90.9 °F 77.0 °F 84% 29.83 in 6.2 mi North 5.8 mph - N/A   Mostly Cloudy
10:30 AM 84.2 °F 96.1 °F 78.8 °F 84% 29.83 in 6.2 mi NNE 9.2 mph - N/A   Mostly Cloudy
11:00 AM 86.0 °F 99.3 °F 78.8 °F 79% 29.83 in 6.2 mi ENE 9.2 mph - N/A   Mostly Cloudy
11:30 AM 86.0 °F 99.3 °F 78.8 °F 79% 29.83 in 6.2 mi ENE 11.5 mph - N/A   Mostly Cloudy
12:00 PM 87.8 °F 102.5 °F 78.8 °F 75% 29.80 in 6.2 mi NE 6.9 mph - N/A   Mostly Cloudy
12:30 PM 87.8 °F 102.5 °F 78.8 °F 75% 29.80 in 6.2 mi NNE 11.5 mph - N/A   Mostly Cloudy
1:00 PM 89 °F - 79 °F 65% 29.79 in 6 mi NE 9.2 mph - -   Scattered Clouds
1:00 PM 87.8 °F 102.5 °F 78.8 °F 75% 29.77 in 6.2 mi NE 8.1 mph - N/A   Mostly Cloudy
1:30 PM 87.8 °F 99.7 °F 77.0 °F 70% 29.74 in 6.2 mi ENE 6.9 mph - N/A   Mostly Cloudy
2:00 PM 87.8 °F 99.7 °F 77.0 °F 70% 29.74 in 6.2 mi ENE 9.2 mph - N/A   Mostly Cloudy
2:30 PM 86.0 °F 95.1 °F 75.2 °F 70% 29.74 in 6.2 mi ENE 9.2 mph - N/A   Mostly Cloudy
3:00 PM 86.0 °F 95.1 °F 75.2 °F 70% 29.71 in 6.2 mi ENE 5.8 mph - N/A Rain Light Rain
3:30 PM 84.2 °F 92.3 °F 75.2 °F 74% 29.71 in 6.2 mi ENE 8.1 mph - N/A   Mostly Cloudy
4:00 PM 84.2 °F 90.9 °F 73.4 °F 70% 29.74 in 6.2 mi ENE 5.8 mph - N/A   Mostly Cloudy
4:30 PM 84.2 °F 90.9 °F 73.4 °F 70% 29.71 in 6.2 mi NE 3.5 mph - N/A   Mostly Cloudy
5:00 PM 84.2 °F 90.9 °F 73.4 °F 70% 29.74 in 6.2 mi ENE 4.6 mph - N/A   Mostly Cloudy
5:30 PM 82.4 °F 88.2 °F 73.4 °F 74% 29.74 in 6.2 mi NE 3.5 mph - N/A   Mostly Cloudy
6:00 PM 82.4 °F 88.2 °F 73.4 °F 74% 29.74 in 6.2 mi NNE 6.9 mph - N/A   Mostly Cloudy
6:30 PM 80.6 °F 84.6 °F 71.6 °F 74% 29.74 in 6.2 mi NNE 6.9 mph - N/A   Mostly Cloudy
7:00 PM 80 °F - 72 °F 70% 29.77 in 6 mi NNE 5.8 mph - -   Partly Cloudy
7:00 PM 80.6 °F 84.6 °F 71.6 °F 74% 29.77 in 6.2 mi NNE 6.9 mph - N/A   Mostly Cloudy
7:30 PM 78.8 °F - 71.6 °F 78% 29.80 in 6.2 mi NNE 3.5 mph - N/A   Mostly Cloudy
8:00 PM 78.8 °F - 71.6 °F 78% 29.80 in 6.2 mi WNW 2.3 mph - N/A   Mostly Cloudy
8:30 PM 78.8 °F - 71.6 °F 78% 29.83 in 5.6 mi SSE 2.3 mph - N/A Rain Light Rain
9:00 PM 77.0 °F - 69.8 °F 78% 29.83 in 1.9 mi ENE 8.1 mph - N/A Rain Rain
9:30 PM 75.2 °F - 69.8 °F 83% 29.83 in 3.7 mi NE 5.8 mph - N/A Rain Rain
10:00 PM 75.2 °F - 69.8 °F 83% 29.83 in 3.7 mi NNE 3.5 mph - N/A Rain Rain
10:30 PM 75.2 °F - 71.6 °F 89% 29.83 in 5.0 mi NNW 6.9 mph - N/A   Mostly Cloudy
11:00 PM 75.2 °F - 71.6 °F 89% 29.83 in 5.0 mi Calm Calm - N/A   Mostly Cloudy
11:30 PM 75.2 °F - 71.6 °F 89% 29.83 in 5.0 mi Calm Calm - N/A   Mostly Cloudy